Home > Weather > Saratov > Past weeks

Flag for Russia Weather for the Past 2 Weeks in Saratov, Russia

Now
30 °F

Sunny.


Feels Like: 24 °F
Forecast: 22 / 29 °F
Wind: 6 mph from Southwest

Location: Saratov / Tsentralny

Current Time: Feb 9, 2016 at 11:09:55 AM

Latest Report: Feb 9, 2016 at 10:30 AM


Visibility: 10 mi

Pressure: 30.42 "Hg

Humidity: 69%

Dew point: 21 °F

Location of SaratovLocation

Historic Weather in Saratov — Graph

°F

Saratov Temperature Yesterday

Maximum temperature yesterday: 32 °F (at 3:00 PM)
Minimum temperature yesterday: 23 °F (at 1:00 AM)
Average temperature yesterday: 28 °F

High & Low Weather Summary for the Past Weeks

 TemperatureHumidityPressure
High50 °F (Feb 5, 11:30 AM)100% (Jan 29, 4:00 AM)30.42 "Hg (Jan 29, 4:00 AM)
Low-8 °F (Jan 26, 7:00 AM)28% (Jan 25, 6:30 PM)29.56 "Hg (Feb 3, 8:00 PM)
Average24 °F83%30.00 "Hg
* Reported Jan 25 10:00 AM — Feb 9 10:00 AM, Saratov, Weather by CustomWeather, © 2016

Note: Actual official high and low records may vary slightly from our data, if they occured in-between our weather recording intervals... More about our weather records

Advertising

Saratov Weather History for the Previous 24 Hours

 ConditionsComfort  
Time TempWeatherWind HumidityBarometerVisibility
10:00 AM
Tue, Feb 9
30 °FSunny.6 mph69%30.42 "Hg10 mi
9:30 AM32 °FSunny.10 mph60%30.42 "Hg10 mi
9:00 AM32 °FSunny.10 mph60%30.42 "Hg10 mi
8:30 AM30 °FSunny.10 mph69%30.42 "Hg10 mi
8:00 AM30 °FClear.10 mph69%30.42 "Hg10 mi
7:30 AM32 °FClear.8 mph64%30.39 "Hg10 mi
6:30 AM30 °FClear.10 mph69%30.39 "Hg10 mi
6:00 AM30 °FClear.10 mph64%30.39 "Hg10 mi
5:30 AM30 °FClear.10 mph69%30.39 "Hg10 mi
4:30 AM30 °FClear.10 mph69%30.39 "Hg10 mi
4:00 AM30 °FClear.15 mph69%30.39 "Hg10 mi
3:00 AM30 °FClear.15 mph64%30.39 "Hg10 mi
2:00 AM28 °FClear.10 mph69%30.42 "Hg10 mi
1:00 AM28 °FClear.13 mph69%30.42 "Hg10 mi
12:00 AM28 °FClear.13 mph69%30.42 "Hg10 mi
11:00 PM
Mon, Feb 8
28 °FClear.8 mph69%30.39 "Hg10 mi
10:30 PM28 °FClear.8 mph69%30.39 "Hg10 mi
10:00 PM28 °FClear.6 mph69%30.39 "Hg10 mi
9:30 PM30 °FClear.3 mph59%30.39 "Hg10 mi
9:00 PM30 °FClear.6 mph59%30.39 "Hg10 mi
8:30 PM30 °FClear.6 mph59%30.39 "Hg10 mi
8:00 PM30 °FClear.13 mph59%30.39 "Hg10 mi
7:30 PM30 °FClear.10 mph59%30.36 "Hg10 mi
7:00 PM30 °FClear.10 mph59%30.36 "Hg10 mi
6:30 PM30 °FClear.10 mph59%30.36 "Hg10 mi
6:00 PM30 °FClear.10 mph59%30.36 "Hg10 mi
5:30 PM30 °FSunny.15 mph59%30.36 "Hg10 mi
5:00 PM30 °FSunny.15 mph59%30.36 "Hg10 mi
4:30 PM32 °FSunny.15 mph60%30.36 "Hg10 mi
4:00 PM32 °FSunny.15 mph60%30.36 "Hg10 mi
3:30 PM32 °FSunny.13 mph64%30.36 "Hg10 mi
3:00 PM32 °FSunny.8 mph64%30.36 "Hg10 mi
2:30 PM28 °FSunny.6 mph69%30.36 "Hg10 mi
2:00 PM28 °FSunny.6 mph69%30.36 "Hg10 mi
1:30 PM30 °FSunny.6 mph64%30.36 "Hg10 mi
1:00 PM30 °FSunny.6 mph64%30.36 "Hg10 mi
12:30 PM28 °FSunny.6 mph64%30.36 "Hg10 mi
12:00 PM28 °FSunny.6 mph64%30.36 "Hg10 mi
11:30 AM27 °FSunny.6 mph69%30.36 "Hg10 mi
11:00 AM27 °FSunny.8 mph69%30.36 "Hg10 mi
Weather by CustomWeather, © 2016

See weather overviewHow to use our weather pages